Vertical_Velocity
-0 -2 -1 -1 0 2 -1 -2 1 1 1 -3 -2 -0 -1 -1 -2 -1 -1 -1 -1 -1 0 0 -0 -0 -0 -0 -2 -1 -1 -1 -0 -1 2 1 0 -1 1 0 0 -3 0
-1 1 0 -2 -0 -0 -1 2 -1 1 -2 -0 0 -1 -2 -2 -4 -2 -1 -1 -2 -1 -2 -0 0 -0 0 1 -1 -0 -1 -1 -0 -2 0 -1 -1 1 -1 -4 0 -1 -2
0 -1 2 3 1 0 2 0 2 -1 -2 -2 -2 1 0 -1 -3 -3 -2 -3 -1 -3 -2 -4 -3 -2 -1 1 3 1 -0 -1 -1 -1 -3 -4 -3 -2 0 0 2 -0 -2
-2 1 -2 -2 -3 -0 -3 -2 -2 -1 0 1 2 1 2 -0 -1 0 -1 -0 -2 -2 -1 -1 -2 -1 -1 -2 -5 -5 4 1 -0 0 0 -1 -1 -3 -1 -0 -2 0 -1
-0 1 -1 0 -1 -0 -0 1 1 -0 -2 -2 -0 0 0 0 -1 -2 -0 -0 -1 2 -3 -0 -1 -1 1 1 1 -0 -1 -2 1 -0 1 -1 -0 1 0 0 -1 -2 -3
2 3 -0 2 1 -1 2 -1 -1 1 0 1 -1 0 1 -0 1 1 1 -0 -0 -1 1 -1 -1 -1 -1 -1 1 1 -1 6 -1 1 1 2 1 -1 1 1 -3 -2 0
4 5 2 2 1 2 -1 -1 -1 1 1 1 0 0 2 1 -0 1 1 -0 -1 1 1 2 -1 2 2 1 1 0 1 1 -1 -0 5 -1 1 2 0 -3 -1 -4 -2
3 6 3 1 1 5 3 2 0 1 4 1 1 -1 -1 2 1 0 -0 2 2 1 -5 -2 -3 -1 0 0 -1 0 2 2 1 -1 -2 1 1 -1 1 -2 -2 -1 -3
7 1 -9 -4 -1 6 10 5 1 0 1 -2 3 -1 -2 2 0 4 -1 -0 1 -1 -1 -2 -2 0 -1 1 1 -3 -0 0 3 4 -3 -5 3 5 0 0 -7 1 -3
10 7 -8 -3 1 -13 -22 -10 9 -5 -5 -2 -9 -3 6 6 3 -4 -0 -2 -0 -1 2 1 1 -1 -1 -1 -3 -2 0 0 -4 -5 4 6 2 -1 5 5 2 -1 -4
5 9 -0 8 2 10 6 2 -1 1 12 10 3 5 -13 11 6 3 -1 -3 -1 -0 -0 -1 -0 1 3 1 4 -0 1 -5 -2 2 -7 -6 -1 4 1 10 2 9 1
-8 19 -10 17 5 5 -2 -3 1 -3 3 5 -5 4 6 14 1 3 1 1 -1 -4 -3 -3 2 1 -0 -1 -2 -2 4 1 3 -0 4 0 0 -5 4 4 3 7 6
-8 -9 -7 9 7 3 23 -6 11 -3 9 -14 -6 -3 -1 2 8 -0 3 2 -1 -0 -1 -7 1 0 -1 -2 -1 0 -0 -0 1 -5 -4 0 3 -5 -2 2 1 3 -3
-0 -2 -29 -5 13 -21 0 2 -8 -17 -10 1 -2 -2 -9 6 5 1 2 -0 -1 -0 1 -2 -0 3 1 1 0 1 -6 -1 -0 1 -3 -1 -6 1 -1 -1 -2 -0 1
-3 -1 -1 -13 1 -6 6 1 0 2 5 1 3 5 -4 0 4 0 2 -0 -2 3 0 -8 -5 2 -3 -2 -1 2 -3 -2 5 -1 -2 0 -1 -2 -1 -2 -1 1 -0
-5 6 -1 2 2 4 -2 -1 -2 3 1 2 6 -1 2 0 2 -3 4 2 3 5 -4 -1 -0 1 4 -3 2 -4 5 -0 -0 -1 1 -0 -4 -1 -0 -0 -1 1 -1
1 1 -2 2 -2 1 -1 2 -1 4 2 5 2 1 -0 1 1 0 1 3 -1 -2 0 1 1 -0 -1 0 1 -0 2 -4 -0 2 1 -1 -2 -4 -2 1 -2 0 -0
5 4 3 -2 5 -0 6 1 1 1 1 -2 2 -1 -1 1 3 1 -1 1 -0 -4 3 -0 2 0 -0 2 -5 6 3 0 -7 0 2 0 2 -2 -3 0 -1 -1 -1
-17 -5 -12 -7 -1 3 -3 -2 -1 -2 3 -1 -2 -0 1 3 3 2 -1 0 0 -3 0 1 2 -3 1 -1 -1 -0 -0 2 -1 1 -1 1 1 -1 -2 0 -1 -1 0
-0 3 4 -3 1 3 -1 -2 -4 4 -1 -1 1 -2 -0 2 -1 1 4 1 -5 0 2 -0 3 -3 3 2 4 0 -0 3 -1 -1 -0 1 -0 -1 -1 1 -2 1 -1
1 1 -1 -2 -5 0 4 -8 4 -0 -5 2 2 2 -2 -1 -1 -0 1 3 1 -3 3 1 3 -1 4 -0 -1 -1 5 1 0 2 0 1 -1 -2 -0 -1 -0 -1 -2
2 0 0 -1 5 -1 -1 1 2 -2 -2 -2 1 3 -3 3 -1 1 -1 4 2 2 -3 -1 0 2 4 -2 -3 1 6 4 -1 1 1 -0 -1 -3 -2 -0 -0 -1 -0
0 -1 -1 -1 1 -0 -1 0 -4 1 0 -1 1 -2 -1 -1 0 -3 -5 2 -1 2 4 2 3 3 6 4 -2 -5 2 3 1 -0 0 -1 -2 -2 -1 -0 -1 0 -0
1 0 0 -1 -2 -1 -7 0 -0 -1 -2 1 -1 -3 1 1 1 -0 2 -3 -0 8 1 3 4 0 4 -4 4 -1 0 -0 0 0 1 -2 -0 0 0 1 -0 0 -0
-1 -2 -2 -2 -1 -2 1 0 -1 -1 1 2 -2 1 2 -1 -4 3 2 -4 3 -3 9 1 4 4 -2 -2 3 2 -0 0 1 -0 0 -0 -1 -0 1 1 -0 -1 -1
0 0 0 1 -1 -3 -4 0 -1 0 -1 -1 0 3 -1 -1 1 5 -1 1 0 1 3 1 5 3 -1 -2 3 3 -1 1 2 0 -1 -1 -0 0 -0 -0 -2 -0 -1
Height
3204 3206 3209 3210 3211 3212 3213 3213 3214 3213 3213 3213 3212 3211 3210 3209 3208 3208 3206 3205 3204 3202 3201 3199 3197 3196 3194 3192 3190 3188 3187 3185 3183 3181 3180 3178 3177 3175 3174 3173 3173 3172 3172
3203 3205 3207 3209 3210 3211 3211 3212 3212 3212 3211 3211 3210 3210 3209 3208 3207 3206 3205 3204 3202 3201 3199 3197 3196 3194 3192 3189 3187 3185 3184 3182 3181 3179 3178 3176 3174 3172 3171 3171 3170 3169 3168
3201 3203 3205 3207 3208 3208 3209 3209 3209 3208 3208 3208 3208 3208 3207 3206 3205 3204 3203 3202 3200 3199 3196 3194 3192 3190 3188 3186 3184 3182 3181 3179 3178 3176 3174 3173 3172 3171 3169 3168 3167 3166 3164
3199 3200 3202 3204 3204 3205 3205 3205 3205 3205 3205 3205 3205 3205 3205 3204 3203 3201 3200 3199 3197 3196 3193 3191 3189 3187 3185 3183 3181 3179 3178 3176 3175 3173 3171 3170 3168 3167 3165 3165 3163 3163 3161
3196 3197 3198 3200 3200 3201 3201 3201 3201 3201 3202 3202 3202 3202 3202 3201 3199 3198 3196 3195 3193 3192 3190 3188 3185 3182 3180 3178 3177 3176 3175 3173 3172 3170 3168 3166 3164 3163 3162 3161 3159 3159 3158
3191 3193 3194 3195 3196 3197 3197 3197 3197 3198 3198 3199 3198 3198 3198 3197 3196 3194 3192 3190 3189 3187 3186 3183 3180 3178 3176 3174 3173 3172 3172 3171 3168 3167 3165 3164 3161 3160 3158 3157 3155 3155 3155
3187 3187 3188 3190 3191 3192 3192 3192 3193 3193 3193 3193 3193 3194 3194 3193 3192 3190 3188 3186 3184 3183 3181 3178 3175 3173 3172 3170 3168 3166 3166 3166 3164 3163 3162 3160 3158 3157 3155 3153 3152 3151 3151
3179 3182 3182 3184 3185 3186 3186 3186 3187 3187 3188 3188 3189 3188 3189 3189 3187 3186 3184 3182 3180 3178 3175 3172 3170 3167 3167 3166 3164 3162 3161 3160 3159 3157 3157 3156 3154 3153 3151 3150 3149 3148 3147
3172 3173 3173 3177 3178 3180 3182 3181 3182 3182 3183 3183 3183 3183 3182 3182 3181 3181 3179 3176 3174 3171 3169 3167 3165 3163 3162 3161 3159 3157 3156 3155 3154 3152 3151 3150 3150 3148 3147 3145 3145 3143 3143
3167 3166 3167 3167 3169 3171 3175 3174 3175 3177 3177 3177 3174 3175 3176 3176 3174 3173 3172 3170 3168 3167 3165 3163 3160 3157 3156 3154 3153 3151 3150 3149 3148 3147 3146 3144 3142 3143 3142 3141 3142 3140 3139
3161 3161 3162 3162 3163 3162 3163 3165 3167 3168 3167 3169 3169 3169 3167 3169 3169 3168 3165 3164 3163 3161 3159 3157 3156 3152 3151 3149 3148 3147 3145 3143 3142 3140 3140 3138 3138 3138 3137 3138 3138 3137 3135
3157 3157 3158 3157 3157 3157 3157 3158 3159 3160 3160 3161 3162 3163 3161 3163 3161 3160 3159 3157 3155 3154 3153 3152 3149 3147 3146 3144 3143 3141 3139 3137 3135 3135 3134 3133 3133 3133 3133 3134 3134 3134 3132
3150 3151 3153 3150 3150 3152 3152 3152 3154 3153 3153 3155 3158 3156 3155 3153 3154 3153 3152 3150 3148 3146 3146 3146 3144 3142 3141 3139 3138 3135 3134 3132 3130 3129 3129 3128 3129 3127 3127 3128 3129 3130 3129
3143 3146 3145 3145 3145 3147 3148 3145 3146 3146 3145 3148 3148 3150 3148 3146 3147 3145 3145 3143 3141 3139 3138 3138 3138 3136 3135 3133 3131 3130 3128 3127 3125 3124 3124 3124 3124 3123 3123 3122 3124 3124 3123
3134 3135 3136 3138 3140 3139 3139 3140 3140 3140 3141 3142 3143 3142 3139 3138 3138 3137 3137 3135 3134 3133 3131 3130 3131 3130 3128 3127 3125 3124 3123 3121 3120 3120 3119 3120 3119 3118 3118 3118 3118 3118 3118
3129 3131 3132 3133 3134 3134 3134 3133 3133 3133 3133 3133 3133 3131 3130 3130 3129 3128 3128 3128 3127 3127 3124 3124 3125 3124 3121 3121 3119 3117 3117 3116 3116 3115 3116 3116 3115 3114 3114 3114 3114 3113 3113
3124 3125 3126 3127 3127 3127 3126 3126 3126 3126 3125 3124 3123 3123 3122 3121 3121 3120 3120 3120 3119 3119 3119 3117 3116 3116 3114 3113 3113 3111 3111 3111 3112 3112 3112 3112 3111 3110 3109 3109 3109 3109 3109
3117 3118 3119 3119 3120 3120 3119 3119 3118 3117 3116 3115 3114 3114 3114 3114 3113 3112 3112 3111 3111 3110 3111 3110 3109 3108 3107 3107 3106 3105 3106 3106 3107 3107 3107 3107 3106 3105 3105 3105 3104 3104 3104
3111 3112 3112 3112 3112 3111 3110 3109 3108 3107 3106 3106 3105 3105 3106 3105 3105 3104 3103 3103 3102 3102 3102 3102 3101 3101 3100 3101 3100 3101 3102 3101 3102 3102 3103 3102 3102 3101 3100 3100 3100 3100 3099
3105 3105 3105 3104 3103 3102 3100 3099 3099 3097 3097 3096 3096 3096 3096 3096 3096 3095 3094 3094 3094 3094 3094 3094 3094 3094 3094 3095 3096 3097 3097 3097 3097 3097 3097 3097 3097 3096 3095 3095 3095 3095 3095
3097 3097 3096 3094 3094 3093 3091 3090 3088 3088 3088 3087 3087 3086 3086 3086 3086 3085 3085 3085 3086 3086 3087 3087 3087 3088 3088 3090 3091 3092 3092 3091 3092 3093 3093 3092 3091 3091 3091 3090 3090 3090 3089
3089 3088 3087 3086 3085 3084 3083 3081 3080 3079 3078 3077 3077 3077 3077 3077 3077 3077 3076 3076 3078 3079 3081 3081 3081 3083 3084 3085 3086 3087 3087 3088 3088 3089 3088 3088 3087 3086 3085 3085 3085 3084 3084
3081 3081 3080 3079 3077 3075 3074 3072 3070 3069 3068 3068 3068 3068 3068 3068 3069 3069 3069 3070 3071 3072 3074 3075 3076 3078 3079 3080 3082 3082 3083 3083 3083 3084 3084 3083 3082 3082 3081 3080 3080 3079 3078
3075 3074 3072 3070 3068 3065 3063 3062 3060 3059 3058 3058 3058 3058 3059 3060 3061 3062 3062 3063 3064 3066 3068 3071 3072 3073 3074 3075 3076 3076 3077 3078 3079 3079 3079 3078 3078 3077 3076 3075 3074 3073 3072
3067 3066 3064 3061 3059 3056 3054 3052 3050 3049 3048 3049 3049 3050 3051 3052 3054 3055 3056 3057 3058 3061 3063 3066 3067 3069 3069 3070 3070 3071 3072 3074 3074 3074 3074 3073 3072 3071 3070 3070 3068 3067 3065
3058 3056 3054 3051 3048 3045 3042 3041 3039 3039 3039 3041 3041 3042 3043 3045 3046 3048 3050 3052 3053 3057 3059 3061 3062 3064 3064 3064 3064 3066 3067 3068 3069 3068 3068 3068 3066 3065 3065 3063 3062 3060 3058